| time (UTC) | temp C | wind direction | speed KPH | gust KPH | rain 1hr cm | rain 24hr cm | rain mn cm | humidity % | barometer mb |
| 20260510014539 | 7 | 93 | 0.0 | 0.0 | 0.00 | 1.50 | 1.50 | 96 | 1012.0 |
| 20260510013023 | 7 | 93 | 0.0 | 0.0 | 0.00 | 1.50 | 1.50 | 97 | 1011.9 |
| 20260510011607 | 7 | 93 | 0.0 | 0.0 | 0.00 | 1.50 | 1.50 | 96 | 1011.9 |
| 20260510004540 | 7 | 93 | 0.0 | 0.0 | 0.00 | 1.50 | 1.50 | 96 | 1011.5 |
| 20260510003021 | 7 | 96 | 0.0 | 0.0 | 0.00 | 1.50 | 1.50 | 96 | 1011.4 |
| 20260510001508 | 7 | 94 | 0.0 | 0.0 | 0.00 | 1.50 | 1.50 | 96 | 1011.3 |
| 20260510000006 | 7 | 94 | 0.0 | 0.0 | 0.00 | 1.50 | 1.50 | 96 | 1011.0 |
| 20260509234533 | 7 | 94 | 0.0 | 0.0 | 0.00 | 1.50 | 1.50 | 96 | 1011.0 |
| 20260509233101 | 7 | 94 | 0.0 | 0.0 | 0.00 | 1.50 | 1.50 | 96 | 1010.9 |
| 20260509231603 | 7 | 105 | 0.0 | 0.0 | 0.00 | 1.50 | 1.50 | 96 | 1011.0 |
| 20260509230031 | 7 | 91 | 0.0 | 0.0 | 0.00 | 1.50 | 1.50 | 96 | 1010.8 |
| 20260509224513 | 7 | 105 | 0.0 | 0.0 | 0.00 | 1.50 | 1.50 | 96 | 1010.9 |
| 20260509223048 | 7 | 127 | 0.0 | 0.0 | 0.00 | 1.50 | 1.50 | 96 | 1010.9 |
| 20260509221536 | 7 | 81 | 0.0 | 0.0 | 0.00 | 1.50 | 1.50 | 96 | 1010.9 |
| 20260509220103 | 7 | 108 | 0.0 | 0.0 | 0.00 | 1.50 | 1.50 | 96 | 1010.9 |
| 20260509214545 | 7 | 108 | 0.0 | 0.0 | 0.03 | 1.50 | 1.50 | 96 | 1011.0 |
| 20260509213035 | 7 | 108 | 0.0 | 0.0 | 0.03 | 1.50 | 1.50 | 96 | 1011.1 |
| 20260509211502 | 6 | 108 | 0.0 | 0.0 | 0.05 | 1.50 | 1.50 | 96 | 1011.3 |
| 20260509210112 | 6 | 107 | 0.0 | 0.0 | 0.05 | 1.50 | 1.50 | 96 | 1011.5 |
| 20260509204559 | 6 | 92 | 0.0 | 0.0 | 0.08 | 1.45 | 1.45 | 96 | 1011.8 |
| 20260509203040 | 6 | 92 | 0.0 | 0.0 | 0.13 | 1.45 | 1.45 | 96 | 1011.9 |
| 20260509201513 | 6 | 92 | 0.0 | 0.0 | 0.15 | 1.42 | 1.42 | 96 | 1012.0 |
| 20260509200109 | 6 | 91 | 0.0 | 0.0 | 0.20 | 1.42 | 1.42 | 96 | 1012.0 |
| 20260509194603 | 6 | 91 | 0.0 | 0.0 | 0.20 | 1.40 | 1.40 | 96 | 1012.1 |
| 20260509193052 | 6 | 94 | 0.0 | 0.0 | 0.25 | 1.35 | 1.35 | 96 | 1012.0 |
| 20260509191543 | 6 | 94 | 0.0 | 0.0 | 0.25 | 1.30 | 1.30 | 96 | 1012.0 |
| 20260509190017 | 6 | 94 | 0.0 | 0.0 | 0.25 | 1.24 | 1.24 | 96 | 1012.3 |
| 20260509184516 | 6 | 94 | 0.0 | 0.0 | 0.25 | 1.19 | 1.19 | 96 | 1012.4 |
| 20260509183133 | 5 | 94 | 0.0 | 0.0 | 0.23 | 1.12 | 1.12 | 96 | 1012.6 |
| 20260509181549 | 5 | 91 | 0.0 | 0.0 | 0.23 | 1.04 | 1.04 | 95 | 1012.7 |
| 20260509180045 | 5 | 78 | 0.0 | 0.0 | 0.25 | 0.99 | 0.99 | 95 | 1012.7 |
| 20260509174505 | 5 | 147 | 0.0 | 0.0 | 0.25 | 0.94 | 0.94 | 95 | 1012.9 |
| 20260509173105 | 6 | 134 | 0.0 | 0.0 | 0.25 | 0.89 | 0.89 | 95 | 1012.9 |
| 20260509171550 | 5 | 134 | 0.0 | 0.0 | 0.25 | 0.81 | 0.84 | 95 | 1013.0 |
| 20260509170020 | 5 | 130 | 0.0 | 0.0 | 0.20 | 0.71 | 0.71 | 95 | 1013.2 |
| 20260509164504 | 5 | 130 | 0.0 | 0.0 | 0.20 | 0.69 | 0.69 | 95 | 1013.2 |
| 20260509163045 | 5 | 131 | 0.0 | 0.0 | 0.20 | 0.64 | 0.64 | 95 | 1013.3 |
| 20260509161507 | 5 | 131 | 0.0 | 0.0 | 0.18 | 0.56 | 0.56 | 95 | 1013.6 |
| 20260509160109 | 5 | 83 | 0.0 | 0.0 | 0.23 | 0.53 | 0.53 | 95 | 1013.8 |
| 20260509154605 | 5 | 83 | 0.0 | 0.0 | 0.25 | 0.48 | 0.48 | 95 | 1014.1 |
| 20260509153021 | 5 | 252 | 0.0 | 0.0 | 0.25 | 0.43 | 0.43 | 96 | 1014.3 |
| 20260509151615 | 4 | 252 | 0.0 | 0.0 | 0.23 | 0.38 | 0.38 | 95 | 1014.4 |
| 20260509150108 | 5 | 108 | 0.0 | 0.0 | 0.15 | 0.30 | 0.30 | 96 | 1014.4 |
| 20260509144600 | 4 | 108 | 0.0 | 0.0 | 0.10 | 0.23 | 0.23 | 95 | 1014.5 |
| 20260509143035 | 4 | 108 | 0.0 | 0.0 | 0.05 | 0.18 | 0.18 | 95 | 1014.3 |
| 20260509141522 | 4 | 216 | 0.0 | 0.0 | 0.08 | 0.15 | 0.15 | 95 | 1014.2 |
| 20260509140005 | 3 | 216 | 0.0 | 0.0 | 0.08 | 0.15 | 0.15 | 95 | 1014.1 |
| 20260509134602 | 3 | 216 | 0.0 | 0.0 | 0.08 | 0.13 | 0.13 | 94 | 1014.1 |
| 20260509133100 | 3 | 216 | 0.0 | 0.0 | 0.10 | 0.13 | 0.13 | 94 | 1014.3 |
| 20260509131511 | 3 | 216 | 0.0 | 0.0 | 0.08 | 0.08 | 0.08 | 93 | 1014.2 |
| 20260509130059 | 2 | 216 | 0.0 | 0.0 | 0.08 | 0.08 | 0.08 | 93 | 1014.3 |
| 20260509124550 | 2 | 216 | 0.0 | 0.0 | 0.03 | 0.03 | 0.05 | 93 | 1014.3 |
| 20260509123007 | 2 | 216 | 0.0 | 0.0 | 0.03 | 0.03 | 0.03 | 93 | 1014.5 |
| 20260509121559 | 1 | 216 | 0.0 | 0.0 | 0.00 | 0.00 | 0.00 | 92 | 1014.4 |
| 20260509120045 | 1 | 216 | 0.0 | 0.0 | 0.00 | 0.00 | 0.00 | 92 | 1014.6 |
| 20260509114550 | 1 | 216 | 0.0 | 0.0 | 0.00 | 0.00 | 0.00 | 91 | 1014.7 |
| 20260509113032 | 1 | 216 | 0.0 | 0.0 | 0.00 | 0.00 | 0.00 | 92 | 1014.8 |
| 20260509111527 | 1 | 216 | 0.0 | 0.0 | 0.00 | 0.00 | 0.00 | 92 | 1015.0 |
| 20260509110032 | 0 | 217 | 0.0 | 0.0 | 0.00 | 0.00 | 0.00 | 92 | 1014.9 |
| 20260509104502 | 0 | 217 | 0.0 | 0.0 | 0.00 | 0.00 | 0.00 | 92 | 1015.0 |
| 20260509103054 | 0 | 217 | 0.0 | 0.0 | 0.00 | 0.00 | 0.00 | 93 | 1015.1 |
| 20260509101553 | 0 | 217 | 0.0 | 0.0 | 0.00 | 0.00 | 0.00 | 92 | 1015.1 |
| 20260509100058 | 0 | 217 | 0.0 | 0.0 | 0.00 | 0.00 | 0.00 | 92 | 1014.9 |
| 20260509094546 | 0 | 217 | 0.0 | 0.0 | 0.00 | 0.00 | 0.00 | 92 | 1015.1 |
| 20260509093021 | 0 | 218 | 0.0 | 0.0 | 0.00 | 0.00 | 0.00 | 93 | 1015.0 |
| 20260509091527 | 0 | 218 | 0.0 | 0.0 | 0.00 | 0.00 | 0.00 | 93 | 1015.0 |
| 20260509090100 | 0 | 218 | 0.0 | 0.0 | 0.00 | 0.00 | 0.00 | 94 | 1015.0 |
| 20260509084600 | -1 | 218 | 0.0 | 0.0 | 0.00 | 0.00 | 0.00 | 93 | 1015.1 |
| 20260509083051 | -1 | 218 | 0.0 | 0.0 | 0.00 | 0.00 | 0.00 | 93 | 1014.9 |
| 20260509081508 | -1 | 218 | 0.0 | 0.0 | 0.00 | 0.00 | 0.00 | 94 | 1014.5 |
| 20260509080113 | -1 | 218 | 0.0 | 0.0 | 0.00 | 0.00 | 0.00 | 93 | 1014.5 |
| 20260509074604 | -1 | 218 | 0.0 | 0.0 | 0.00 | 0.00 | 0.00 | 93 | 1014.4 |
| 20260509073053 | -1 | 218 | 0.0 | 0.0 | 0.00 | 0.00 | 0.00 | 93 | 1014.3 |
| 20260509071537 | -1 | 218 | 0.0 | 0.0 | 0.00 | 0.00 | 0.00 | 93 | 1014.4 |
| 20260509070002 | -1 | 218 | 0.0 | 0.0 | 0.00 | 0.00 | 0.00 | 92 | 1014.3 |
| 20260509064556 | -1 | 218 | 0.0 | 0.0 | 0.00 | 0.00 | 0.00 | 91 | 1014.6 |
| 20260509063036 | 0 | 218 | 0.0 | 0.0 | 0.00 | 0.00 | 0.00 | 91 | 1014.5 |
| 20260509061528 | 0 | 218 | 0.0 | 0.0 | 0.00 | 0.00 | 0.00 | 91 | 1014.6 |
| 20260509060002 | 0 | 218 | 0.0 | 0.0 | 0.00 | 0.00 | 0.00 | 92 | 1014.7 |
| 20260509054557 | 0 | 218 | 0.0 | 0.0 | 0.00 | 0.00 | 0.00 | 92 | 1014.9 |
| 20260509053054 | 0 | 218 | 0.0 | 0.0 | 0.00 | 0.00 | 0.00 | 92 | 1014.9 |
| 20260509051537 | 0 | 218 | 0.0 | 0.0 | 0.00 | 0.00 | 0.00 | 92 | 1014.9 |
| 20260509050050 | 0 | 218 | 0.0 | 0.0 | 0.00 | 0.00 | 0.00 | 92 | 1014.8 |
| 20260509044541 | 0 | 218 | 0.0 | 0.0 | 0.00 | 0.00 | 0.00 | 91 | 1014.7 |
| 20260509043005 | 0 | 218 | 0.0 | 0.0 | 0.00 | 0.00 | 0.00 | 90 | 1014.6 |
| 20260509041550 | 0 | 218 | 0.0 | 0.0 | 0.00 | 0.00 | 0.00 | 90 | 1014.5 |
| 20260509034541 | 0 | 218 | 0.0 | 0.0 | 0.00 | 0.00 | 0.00 | 89 | 1014.3 |
| 20260509033017 | 0 | 218 | 0.0 | 0.0 | 0.00 | 0.00 | 0.00 | 89 | 1014.3 |
| 20260509031530 | 0 | 218 | 0.0 | 0.0 | 0.00 | 0.00 | 0.00 | 89 | 1014.2 |
| 20260509030005 | 1 | 218 | 0.0 | 0.0 | 0.00 | 0.00 | 0.00 | 88 | 1014.1 |
| 20260509024559 | 1 | 218 | 0.0 | 0.0 | 0.00 | 0.00 | 0.00 | 88 | 1013.9 |
| 20260509023052 | 1 | 218 | 0.0 | 0.0 | 0.00 | 0.00 | 0.00 | 87 | 1013.8 |
| 20260509021528 | 1 | 218 | 0.0 | 0.0 | 0.00 | 0.00 | 0.00 | 86 | 1013.7 |
| 20260509020041 | 2 | 218 | 0.0 | 0.0 | 0.00 | 0.00 | 0.00 | 85 | 1013.5 |